Weather History for Cocoa Beach, FL

Change the Weather History Date:

Wednesday, November 21, 2012

  Actual Average Record
Temperature  
Mean Temperature 64 °F -  
Max Temperature 68 °F 74 °F 80 °F (1996)
Min Temperature 60 °F 62 °F 44 °F (2006)
Degree Days  
Heating Degree Days 1    
Growing Degree Days 14 (Base 50)    
Moisture  
Dew Point 55 °F    
Average Humidity 74    
Maximum Humidity 89    
Minimum Humidity 58    
Precipitation  
Precipitation 0.00 in - - ()
Sea Level Pressure  
Sea Level Pressure 30.03 in    
Wind  
Wind Speed 16 mph (NNW)    
Max Wind Speed 21 mph    
Max Gust Speed 25 mph    
Visibility 10 miles    
Events      
Averages and records for this station are not official NWS values.
T = Trace of Precipitation, MM = Missing Value Source: NWS Daily Summary

Daily Weather History Graph

Daily Weather History Graph

Search for Another Location

Airport:

Trip Planner

Search our weather history database for the weather conditions in past years. The results will help you decide how hot, cold, wet, or windy it might be!

Date:

Astronomy

Nov. 21, 2012 Rise Set
Actual Time 6:49 AM EST 5:27 PM EST
Civil Twilight 6:24 AM EST 5:52 PM EST
Nautical Twilight 5:55 AM EST 6:20 PM EST
Astronomical Twilight 5:27 AM EST 6:49 PM EST
Moon 1:15 PM EST (11/21) 12:37 AM EST (11/21)
Length of Visible Light 11h 27m
Length of Day
10h 37m
First Quarter, 61% of the Moon is Illuminated
Nov 21
First Quarter
Nov 28
Full
Dec 6
Last Quarter
Dec 13
New
Dec 20
First Quarter

Hourly Weather History & Observations

Time (EST) Temp. Dew Point Humidity Pressure Visibility Wind Dir Wind Speed Gust Speed Precip Events Conditions
12:55 AM 61.3 °F 56.8 °F 85% 30.01 in 10.0 mi NW 15.0 mph - N/A   Clear
1:55 AM 60.6 °F 56.7 °F 87% 29.99 in 10.0 mi NW 12.7 mph - N/A   Clear
2:55 AM 60.1 °F 56.8 °F 89% 29.99 in 10.0 mi NW 11.5 mph - N/A   Clear
3:55 AM 60.3 °F 56.8 °F 88% 29.99 in 10.0 mi NW 15.0 mph - N/A   Clear
4:55 AM 61.0 °F 57.6 °F 88% 29.99 in 10.0 mi NW 15.0 mph - N/A   Clear
5:55 AM 60.6 °F 56.8 °F 87% 30.00 in 10.0 mi NW 18.4 mph - N/A   Clear
6:55 AM 60.1 °F 56.3 °F 87% 30.02 in 10.0 mi NW 15.0 mph - N/A   Clear
7:55 AM 61.5 °F 56.8 °F 85% 30.03 in 10.0 mi NW 16.1 mph - N/A   Clear
8:55 AM 63.5 °F 57.0 °F 79% 30.04 in 10.0 mi NW 19.6 mph - N/A   Clear
9:55 AM 66.4 °F 57.4 °F 73% 30.06 in 10.0 mi NW 19.6 mph - N/A   Scattered Clouds
10:55 AM 68.2 °F 56.7 °F 67% 30.06 in 10.0 mi NW 20.7 mph - N/A   Scattered Clouds
11:55 AM 67.3 °F 56.1 °F 67% 30.04 in 10.0 mi NW 16.1 mph - N/A   Scattered Clouds
12:55 PM 68.4 °F 55.6 °F 64% 30.02 in 10.0 mi NNW 18.4 mph 23.0 mph N/A   Scattered Clouds
1:55 PM 68.0 °F 54.1 °F 61% 30.00 in 10.0 mi NNW 18.4 mph - N/A   Scattered Clouds
2:55 PM 68.4 °F 53.1 °F 58% 30.00 in 10.0 mi NNW 17.3 mph 21.9 mph N/A   Partly Cloudy
3:55 PM 67.5 °F 53.4 °F 61% 30.00 in 10.0 mi NNW 16.1 mph - N/A   Clear
4:55 PM 65.1 °F 53.4 °F 66% 30.01 in 10.0 mi NNW 15.0 mph 20.7 mph N/A   Clear
5:55 PM 62.8 °F 54.7 °F 75% 30.03 in 10.0 mi NNW 16.1 mph 25.3 mph N/A   Clear
6:55 PM 61.9 °F 54.0 °F 75% 30.04 in 10.0 mi NNW 18.4 mph - N/A   Clear
7:55 PM 61.3 °F 54.0 °F 77% 30.05 in 10.0 mi NNW 15.0 mph 24.2 mph N/A   Clear
8:55 PM 61.2 °F 52.3 °F 73% 30.06 in 10.0 mi NNW 16.1 mph - N/A   Clear
9:55 PM 62.1 °F 47.5 °F 59% 30.06 in 10.0 mi NNW 16.1 mph - N/A   Clear
10:55 PM 61.9 °F 49.5 °F 64% 30.06 in 10.0 mi NW 17.3 mph - N/A   Clear
11:55 PM 60.3 °F 51.6 °F 73% 30.06 in 10.0 mi NW 16.1 mph - N/A   Clear